Showing default

IMPULSE-2 MIRA, 62673

Orbit data source: Space-Track

IMPULSE-2 MIRA, 62673 is a payload satellite owned by Impulse Space (US) in SSO that was launched on Tue, 14 Jan 2025 UTC via an FALCON 9 launch vehicle from the Air Force Western Test Range (AFWTR). Payload-class satellites include a variety of spacecraft equipped with specific instruments for various scientific and technological missions. These include communications satellites like Starlink; space stations such as the ISS; scientific satellites like the Hubble; Earth observation satellites from companies like Planet Labs, Umbra, and HawkEye 360; GPS; miniature CubeSats for education and research; and military/defense satellites.

Loading next visibility...
Identifier
62673, 2025-009BS
Orbit
SSO
Country
Flag of USUS
Related business
Manufacturer
Impulse Space
Mission
Operational Commercial Technology
Bus & Motor
MIRA, AOCS
Mass
250 kg wet, 200 kg dry
Launch date (UTC)
2025-01-14 (1 year ago)
Launch vehicle
FALCON 9
Launch site
Air Force Western Test Range (AFWTR)
Object type
Payload
Rocket body
Debris
Shape & HBR
Box, 1.2 m
Radar Cross Section
0.575 m², Medium (>0.1 m² and < 1m²)

Expand to show TLE details & history
Last TLE update: 16 hours ago

TLE from 16 hours ago
0 IMPULSE-2 MIRA
1 62673U 25009BS  26034.56078156  .00012856  00000-0  39272-3 0  9991
2 62673  97.5304 117.6227 0079992 236.5855 122.7717 15.30866664116202
Epoch: 2026-02-03T13:27Z
TLE epoch observation values (Epoch: 2026-02-03T13:27:31.526Z)
Latitude
-0.00003°
Longitude
142.00139°
Altitude
506.307 km
Speed
7.594 km/s
True Right ascension
07h 50m 29s
True Declination
0° 00' 00"
Sunlit
Object was in full shadow at epoch
Visualization orbit readout
Latitude
Unknown
Longitude
Unknown
Altitude
Unknown
Speed
Unknown
Apparent Right ascension
Unknown
Apparent Declination
Unknown
Sunlit
N/A
Visualization observer readout
Local Sidereal Time
07:08:55
Azimuth
Unknown
Elevation
Unknown
Doppler factor
Unknown
Orbital elements
Apogee altitude
524.963 km
Perigee altitude
415.401 km
Semi-major axis
6,848.319 km
Eccentricity
0.008
Inclination
97.5304°
RAAN
117.6227°
Arg. of periapsis
236.5855°
True anomaly
123.53827°
Mean anomaly
122.7717°
Eccentric anomaly
123.1554°
Mean motion
3.82972 °/min
Orbital period
94 mins
BSTAR
0.00039272
Loading maneuver chart data...
Computing Atmospheric mass density...
Loading historical data...
Loading historical data...
Loading historical data...
Loading historical data...
Loading historical data...
Loading historical data...
Loading historical data...

Documentation

Showing up to 5 results
|